Regional Weather Roundup
Issued by NWS

Home | Current Version | Previous Version | Text Only | Print | Product List | Glossary On
Versions: 1 2 3 4 5 6 7 8 9 10 11 12 13 14 15 16 17 18 19 20 21 22 23 24 25 26 27 28 29 30 31 32 33 34 35 36 37 38 39 40 41 42 43 44 45 46 47 48 49
000
ASUS42 KKEY 261010
RWRKEY

FLORIDA REGIONAL WEATHER ROUNDUP FOR THE FLORIDA KEYS
NATIONAL WEATHER SERVICE KEY WEST FLORIDA
600 AM EDT TUE MAY 26 2015

...SOUTH FLORIDA AND THE KEYS...

CITY           SKY/WX    TMP DP  RH WIND       PRES   REMARKS
FORT MYERS     PTCLDY    75  73  93 E6        30.13R
SW REGIONAL AP PTCLDY    74  72  93 NE6       30.14R
NAPLES         PTCLDY    75  73  93 E7        30.12R
MIAMI          PTCLDY    80  70  71 E15       30.13R
WEST KENDALL   MOCLDY    78  73  84 E12       30.12R
HOMESTEAD      PTCLDY    81  73  78 E8        30.12R
MARATHON       PTCLDY    81  74  79 E12G18    30.10R
BOCA CHICA NAS MOCLDY    81  73  76 E17G25    30.09R
KEY WEST INTL  PTCLDY    81  74  79 E15       30.10R

...INTERNATIONAL WEATHER...

CITY           SKY/WX    TMP DP  RH WIND       PRES   REMARKS
NASSAU BAHAMAS PTCLDY    79  70  73 E6        30.15R
CANCUN MEXICO  PTCLDY    81  73  78 E7        29.98S
COZUMEL MEXICO PTCLDY    75  72  88 CALM      29.98R

ADJACENT COASTAL WATERS...

STATION/POSITION TIME  SKY/WX   TEMP    WIND        PRES    WAVE
                                AIR SEA DIR/SP/G            HT/PER
                 (UTC)          (F)     (DEG/KT/KT) (MB)    (FT/S)
PULASKI SHOAL LI 0900            82     130/ 20/ 21 1018.2R
SAND KEY         0950            81     100/ 18/ 21 1018.6R
SOMBRERO KEY     1000            81     100/ 19/ 21 1019.8R
LONG KEY         0900            81 83  110/ 17/ 20 1019.7R
MOLASSES REEF    1000            80 83  110/ 20/ 21 1019.5R
FOWEY ROCKS      NOT AVBL

$$



USA.gov is the U.S. government's official web portal to all federal, state and local government web resources and services.